| time (UTC) | temp C | wind direction | speed KPH | gust KPH | rain 1hr cm | rain 24hr cm | rain mn cm | humidity % | barometer mb |
| 20260507085800 | 9 | 236 | 3.2 | 27.4 | 0.00 | 0.00 | 0.00 | 72 | 1015.4 |
| 20260507085254 | 9 | 252 | 6.4 | 27.4 | 0.00 | 0.00 | 0.00 | 72 | 1015.4 |
| 20260507084748 | 9 | 269 | 11.3 | 27.4 | 0.00 | 0.00 | 0.00 | 72 | 1015.3 |
| 20260507084242 | 9 | 260 | 6.4 | 27.4 | 0.00 | 0.00 | 0.00 | 73 | 1015.4 |
| 20260507083736 | 9 | 264 | 6.4 | 30.6 | 0.00 | 0.00 | 0.00 | 73 | 1015.4 |
| 20260507083230 | 9 | 270 | 11.3 | 30.6 | 0.00 | 0.00 | 0.00 | 73 | 1015.5 |
| 20260507082724 | 9 | 281 | 19.3 | 30.6 | 0.00 | 0.00 | 0.00 | 73 | 1015.5 |
| 20260507082218 | 9 | 280 | 17.7 | 30.6 | 0.00 | 0.00 | 0.00 | 73 | 1015.5 |
| 20260507081712 | 9 | 282 | 17.7 | 30.6 | 0.00 | 0.00 | 0.00 | 73 | 1015.6 |
| 20260507081206 | 9 | 278 | 14.5 | 30.6 | 0.00 | 0.00 | 0.00 | 73 | 1015.6 |
| 20260507080700 | 9 | 279 | 17.7 | 29.0 | 0.00 | 0.00 | 0.00 | 73 | 1015.6 |
| 20260507080154 | 9 | 274 | 12.9 | 29.0 | 0.00 | 0.00 | 0.00 | 73 | 1015.7 |
| 20260507075648 | 10 | 277 | 16.1 | 29.0 | 0.00 | 0.00 | 0.00 | 73 | 1015.6 |
| 20260507075142 | 10 | 278 | 19.3 | 29.0 | 0.00 | 0.00 | 0.00 | 73 | 1015.7 |
| 20260507074636 | 10 | 274 | 11.3 | 25.7 | 0.00 | 0.00 | 0.00 | 73 | 1015.7 |
| 20260507074130 | 10 | 278 | 16.1 | 27.4 | 0.00 | 0.00 | 0.00 | 73 | 1015.7 |
| 20260507073624 | 10 | 282 | 16.1 | 27.4 | 0.00 | 0.00 | 0.00 | 73 | 1015.9 |
| 20260507073118 | 10 | 280 | 16.1 | 24.1 | 0.00 | 0.00 | 0.00 | 73 | 1015.9 |
| 20260507072612 | 10 | 277 | 11.3 | 24.1 | 0.00 | 0.00 | 0.00 | 73 | 1015.9 |
| 20260507072106 | 10 | 285 | 14.5 | 24.1 | 0.00 | 0.00 | 0.00 | 73 | 1016.0 |
| 20260507071600 | 10 | 280 | 14.5 | 27.4 | 0.00 | 0.00 | 0.00 | 73 | 1016.0 |
| 20260507071054 | 10 | 288 | 16.1 | 27.4 | 0.00 | 0.00 | 0.00 | 73 | 1016.0 |
| 20260507070548 | 10 | 285 | 14.5 | 24.1 | 0.00 | 0.00 | 0.00 | 73 | 1016.0 |
| 20260507070042 | 10 | 281 | 11.3 | 24.1 | 0.00 | 0.00 | 0.00 | 74 | 1016.0 |
| 20260507065536 | 10 | 287 | 12.9 | 24.1 | 0.00 | 0.00 | 0.00 | 74 | 1015.9 |
| 20260507065030 | 10 | 285 | 9.7 | 22.5 | 0.00 | 0.00 | 0.00 | 74 | 1016.0 |
| 20260507064524 | 10 | 287 | 14.5 | 24.1 | 0.00 | 0.00 | 0.00 | 74 | 1015.9 |
| 20260507064018 | 10 | 288 | 12.9 | 24.1 | 0.00 | 0.00 | 0.00 | 74 | 1016.0 |
| 20260507063512 | 10 | 286 | 14.5 | 24.1 | 0.00 | 0.00 | 0.00 | 74 | 1016.0 |
| 20260507063006 | 10 | 287 | 8.0 | 25.7 | 0.00 | 0.00 | 0.00 | 74 | 1016.1 |
| 20260507062500 | 10 | 289 | 12.9 | 30.6 | 0.00 | 0.00 | 0.00 | 74 | 1016.2 |
| 20260507061954 | 10 | 288 | 12.9 | 30.6 | 0.00 | 0.00 | 0.00 | 74 | 1016.2 |
| 20260507061448 | 10 | 291 | 12.9 | 25.7 | 0.00 | 0.00 | 0.00 | 74 | 1016.2 |
| 20260507060942 | 10 | 290 | 14.5 | 20.9 | 0.00 | 0.00 | 0.00 | 74 | 1016.2 |
| 20260507060436 | 10 | 292 | 12.9 | 25.7 | 0.00 | 0.00 | 0.00 | 74 | 1016.2 |
| 20260507055930 | 10 | 284 | 12.9 | 29.0 | 0.00 | 0.00 | 0.00 | 74 | 1016.2 |
| 20260507055424 | 10 | 288 | 17.7 | 29.0 | 0.00 | 0.00 | 0.00 | 74 | 1016.2 |
| 20260507054918 | 10 | 286 | 16.1 | 27.4 | 0.00 | 0.00 | 0.00 | 74 | 1016.2 |
| 20260507054412 | 10 | 284 | 17.7 | 27.4 | 0.00 | 0.00 | 0.00 | 74 | 1016.3 |
| 20260507053906 | 10 | 290 | 19.3 | 30.6 | 0.00 | 0.00 | 0.00 | 74 | 1016.2 |
| 20260507053400 | 10 | 289 | 19.3 | 30.6 | 0.00 | 0.00 | 0.00 | 74 | 1016.1 |
| 20260507052854 | 10 | 292 | 16.1 | 30.6 | 0.00 | 0.00 | 0.00 | 74 | 1016.1 |
| 20260507052348 | 10 | 288 | 12.9 | 27.4 | 0.00 | 0.00 | 0.00 | 74 | 1016.0 |
| 20260507051842 | 10 | 291 | 8.0 | 24.1 | 0.00 | 0.00 | 0.00 | 74 | 1016.2 |
| 20260507051336 | 10 | 290 | 8.0 | 32.2 | 0.00 | 0.00 | 0.00 | 74 | 1016.1 |
| 20260507050830 | 10 | 291 | 19.3 | 33.8 | 0.00 | 0.00 | 0.00 | 74 | 1016.2 |
| 20260507050324 | 10 | 290 | 14.5 | 33.8 | 0.00 | 0.00 | 0.00 | 74 | 1016.2 |
| 20260507045818 | 10 | 293 | 14.5 | 32.2 | 0.00 | 0.00 | 0.00 | 74 | 1016.1 |
| 20260507045312 | 10 | 290 | 17.7 | 33.8 | 0.00 | 0.00 | 0.00 | 74 | 1016.1 |
| 20260507044806 | 10 | 292 | 19.3 | 35.4 | 0.00 | 0.00 | 0.00 | 74 | 1016.1 |
| 20260507044300 | 10 | 290 | 19.3 | 30.6 | 0.00 | 0.00 | 0.00 | 74 | 1016.0 |
| 20260507043754 | 10 | 285 | 17.7 | 30.6 | 0.00 | 0.00 | 0.00 | 74 | 1016.1 |
| 20260507043248 | 10 | 286 | 17.7 | 32.2 | 0.00 | 0.00 | 0.00 | 74 | 1016.2 |
| 20260507042742 | 10 | 289 | 22.5 | 37.0 | 0.00 | 0.00 | 0.00 | 74 | 1016.0 |
| 20260507042236 | 10 | 285 | 20.9 | 37.0 | 0.00 | 0.00 | 0.00 | 74 | 1016.0 |
| 20260507041730 | 10 | 283 | 14.5 | 33.8 | 0.00 | 0.00 | 0.00 | 74 | 1016.0 |
| 20260507041224 | 10 | 285 | 20.9 | 33.8 | 0.00 | 0.00 | 0.00 | 75 | 1015.9 |
| 20260507040718 | 10 | 289 | 24.1 | 33.8 | 0.00 | 0.00 | 0.00 | 75 | 1015.9 |
| 20260507040212 | 10 | 286 | 24.1 | 37.0 | 0.00 | 0.00 | 0.00 | 75 | 1015.8 |
| 20260507035706 | 10 | 285 | 20.9 | 37.0 | 0.00 | 0.00 | 0.00 | 75 | 1015.9 |
| 20260507035200 | 10 | 283 | 16.1 | 37.0 | 0.00 | 0.00 | 0.00 | 75 | 1015.9 |
| 20260507034654 | 10 | 282 | 16.1 | 37.0 | 0.00 | 0.00 | 0.00 | 75 | 1015.8 |
| 20260507034148 | 10 | 286 | 25.7 | 32.2 | 0.00 | 0.00 | 0.00 | 75 | 1015.7 |
| 20260507033642 | 10 | 286 | 24.1 | 33.8 | 0.00 | 0.00 | 0.00 | 75 | 1015.7 |
| 20260507033136 | 10 | 286 | 16.1 | 33.8 | 0.00 | 0.00 | 0.00 | 75 | 1015.8 |
| 20260507032630 | 10 | 284 | 17.7 | 32.2 | 0.00 | 0.00 | 0.00 | 75 | 1015.7 |
| 20260507032124 | 10 | 286 | 20.9 | 41.8 | 0.00 | 0.00 | 0.00 | 75 | 1015.7 |
| 20260507031618 | 10 | 284 | 25.7 | 40.2 | 0.00 | 0.00 | 0.00 | 75 | 1015.5 |
| 20260507031112 | 10 | 286 | 24.1 | 40.2 | 0.00 | 0.00 | 0.00 | 75 | 1015.5 |
| 20260507030606 | 10 | 285 | 24.1 | 37.0 | 0.00 | 0.00 | 0.00 | 75 | 1015.4 |
| 20260507030100 | 10 | 282 | 19.3 | 33.8 | 0.00 | 0.00 | 0.00 | 75 | 1015.5 |
| 20260507025554 | 10 | 284 | 22.5 | 35.4 | 0.00 | 0.00 | 0.00 | 75 | 1015.5 |
| 20260507025048 | 10 | 286 | 25.7 | 35.4 | 0.00 | 0.00 | 0.00 | 75 | 1015.5 |
| 20260507024542 | 10 | 287 | 25.7 | 30.6 | 0.00 | 0.00 | 0.00 | 76 | 1015.6 |
| 20260507024036 | 10 | 286 | 29.0 | 30.6 | 0.00 | 0.00 | 0.00 | 76 | 1015.4 |
| 20260507023530 | 10 | 283 | 17.7 | 30.6 | 0.00 | 0.00 | 0.00 | 76 | 1015.4 |
| 20260507023024 | 10 | 280 | 22.5 | 37.0 | 0.00 | 0.00 | 0.00 | 76 | 1015.4 |
| 20260507022518 | 10 | 283 | 20.9 | 37.0 | 0.00 | 0.00 | 0.00 | 76 | 1015.5 |
| 20260507022012 | 10 | 282 | 22.5 | 37.0 | 0.00 | 0.00 | 0.00 | 76 | 1015.4 |
| 20260507021506 | 10 | 280 | 24.1 | 37.0 | 0.00 | 0.00 | 0.00 | 76 | 1015.3 |
| 20260507021000 | 10 | 278 | 17.7 | 33.8 | 0.00 | 0.00 | 0.00 | 76 | 1015.3 |
| 20260507020454 | 10 | 281 | 19.3 | 33.8 | 0.00 | 0.00 | 0.00 | 76 | 1015.4 |
| 20260507015948 | 11 | 282 | 22.5 | 41.8 | 0.00 | 0.00 | 0.00 | 76 | 1015.3 |
| 20260507015442 | 11 | 284 | 16.1 | 41.8 | 0.00 | 0.00 | 0.00 | 76 | 1015.3 |
| 20260507014936 | 11 | 284 | 22.5 | 37.0 | 0.00 | 0.00 | 0.00 | 76 | 1015.4 |
| 20260507014430 | 11 | 283 | 20.9 | 38.6 | 0.00 | 0.00 | 0.00 | 76 | 1015.4 |
| 20260507013924 | 11 | 283 | 24.1 | 38.6 | 0.00 | 0.00 | 0.00 | 76 | 1015.3 |
| 20260507013418 | 11 | 281 | 19.3 | 41.8 | 0.00 | 0.00 | 0.00 | 76 | 1015.3 |
| 20260507012912 | 11 | 280 | 19.3 | 41.8 | 0.00 | 0.00 | 0.00 | 76 | 1015.3 |
| 20260507012406 | 11 | 283 | 22.5 | 37.0 | 0.00 | 0.00 | 0.00 | 76 | 1015.3 |
| 20260507011900 | 11 | 284 | 25.7 | 45.1 | 0.00 | 0.00 | 0.00 | 76 | 1015.3 |
| 20260507011354 | 11 | 281 | 24.1 | 45.1 | 0.00 | 0.00 | 0.00 | 76 | 1015.3 |
| 20260507010848 | 11 | 280 | 25.7 | 37.0 | 0.00 | 0.00 | 0.00 | 76 | 1015.3 |
| 20260507010342 | 11 | 279 | 19.3 | 41.8 | 0.00 | 0.00 | 0.00 | 76 | 1015.4 |
| 20260507005836 | 11 | 280 | 19.3 | 41.8 | 0.00 | 0.00 | 0.00 | 76 | 1015.4 |
| 20260507005330 | 11 | 281 | 19.3 | 35.4 | 0.00 | 0.00 | 0.00 | 76 | 1015.3 |
| 20260507004824 | 11 | 274 | 12.9 | 40.2 | 0.00 | 0.00 | 0.00 | 76 | 1015.4 |
| 20260507004318 | 11 | 280 | 19.3 | 40.2 | 0.00 | 0.00 | 0.00 | 76 | 1015.4 |
| 20260507003812 | 12 | 272 | 17.7 | 40.2 | 0.00 | 0.00 | 0.00 | 76 | 1015.4 |
| 20260507003306 | 12 | 272 | 14.5 | 49.9 | 0.00 | 0.00 | 0.00 | 76 | 1015.4 |
| 20260507002800 | 12 | 277 | 17.7 | 49.9 | 0.00 | 0.00 | 0.00 | 76 | 1015.2 |
| 20260507002254 | 12 | 273 | 19.3 | 37.0 | 0.00 | 0.00 | 0.00 | 76 | 1015.2 |
| 20260507001748 | 12 | 268 | 12.9 | 35.4 | 0.00 | 0.00 | 0.00 | 76 | 1015.2 |
| 20260507001242 | 12 | 265 | 11.3 | 43.5 | 0.00 | 0.00 | 0.00 | 76 | 1015.2 |
| 20260507000736 | 12 | 273 | 19.3 | 43.5 | 0.00 | 0.00 | 0.00 | 76 | 1015.0 |
| 20260507000230 | 12 | 274 | 17.7 | 35.4 | 0.00 | 0.00 | 0.00 | 76 | 1015.2 |
| 20260506235724 | 13 | 269 | 14.5 | 38.6 | 0.00 | 0.00 | 0.00 | 76 | 1015.2 |
| 20260506235218 | 13 | 270 | 14.5 | 38.6 | 0.00 | 0.00 | 0.00 | 76 | 1015.2 |
| 20260506234712 | 13 | 277 | 20.9 | 46.7 | 0.00 | 0.00 | 0.00 | 76 | 1015.2 |
| 20260506234206 | 13 | 279 | 22.5 | 46.7 | 0.00 | 0.00 | 0.00 | 76 | 1015.1 |
| 20260506233700 | 13 | 272 | 19.3 | 38.6 | 0.00 | 0.00 | 0.00 | 76 | 1015.2 |
| 20260506233154 | 13 | 267 | 14.5 | 38.6 | 0.00 | 0.00 | 0.00 | 76 | 1015.1 |
| 20260506232648 | 14 | 274 | 16.1 | 51.5 | 0.00 | 0.00 | 0.00 | 76 | 1015.1 |
| 20260506232142 | 15 | 267 | 11.3 | 51.5 | 0.00 | 0.00 | 0.00 | 76 | 1015.0 |
| 20260506231636 | 15 | 272 | 16.1 | 37.0 | 0.00 | 0.00 | 0.00 | 76 | 1015.2 |
| 20260506231130 | 15 | 268 | 12.9 | 37.0 | 0.00 | 0.00 | 0.00 | 76 | 1015.4 |
| 20260506230623 | 14 | 256 | 11.3 | 41.8 | 0.00 | 0.00 | 0.00 | 76 | 1015.1 |
| 20260506230117 | 14 | 268 | 16.1 | 41.8 | 0.00 | 0.00 | 0.00 | 76 | 1015.2 |
| 20260506225612 | 15 | 261 | 12.9 | 43.5 | 0.00 | 0.00 | 0.00 | 76 | 1015.2 |
| 20260506225105 | 15 | 266 | 16.1 | 43.5 | 0.00 | 0.00 | 0.00 | 76 | 1015.1 |
| 20260506224559 | 15 | 263 | 14.5 | 33.8 | 0.00 | 0.00 | 0.00 | 76 | 1015.3 |
| 20260506224053 | 15 | 260 | 11.3 | 40.2 | 0.00 | 0.00 | 0.00 | 76 | 1015.3 |
| 20260506223547 | 15 | 261 | 12.9 | 40.2 | 0.00 | 0.00 | 0.00 | 76 | 1015.4 |
| 20260506223041 | 15 | 258 | 11.3 | 40.2 | 0.00 | 0.00 | 0.00 | 76 | 1015.4 |
| 20260506222535 | 15 | 259 | 11.3 | 40.2 | 0.00 | 0.00 | 0.00 | 76 | 1015.4 |
| 20260506222030 | 15 | 268 | 16.1 | 45.1 | 0.00 | 0.00 | 0.00 | 76 | 1015.6 |
| 20260506221523 | 15 | 264 | 14.5 | 45.1 | 0.00 | 0.00 | 0.00 | 76 | 1015.6 |
| 20260506221017 | 15 | 267 | 17.7 | 37.0 | 0.00 | 0.00 | 0.00 | 76 | 1015.6 |
| 20260506220512 | 16 | 264 | 12.9 | 41.8 | 0.00 | 0.00 | 0.00 | 76 | 1015.7 |
| 20260506220006 | 15 | 262 | 16.1 | 41.8 | 0.00 | 0.00 | 0.00 | 76 | 1015.8 |
| 20260506215459 | 15 | 274 | 14.5 | 40.2 | 0.00 | 0.00 | 0.00 | 76 | 1015.9 |
| 20260506214953 | 16 | 256 | 9.7 | 46.7 | 0.00 | 0.00 | 0.00 | 76 | 1015.9 |
| 20260506214448 | 15 | 263 | 12.9 | 46.7 | 0.00 | 0.00 | 0.00 | 76 | 1016.1 |
| 20260506213942 | 15 | 257 | 14.5 | 35.4 | 0.00 | 0.00 | 0.00 | 76 | 1016.0 |
| 20260506213435 | 16 | 268 | 12.9 | 37.0 | 0.00 | 0.00 | 0.00 | 76 | 1016.0 |
| 20260506212929 | 16 | 266 | 12.9 | 38.6 | 0.00 | 0.00 | 0.00 | 76 | 1015.9 |
| 20260506212423 | 15 | 267 | 14.5 | 40.2 | 0.00 | 0.00 | 0.00 | 76 | 1015.9 |
| 20260506211917 | 16 | 257 | 11.3 | 40.2 | 0.00 | 0.00 | 0.00 | 76 | 1016.0 |
| 20260506211411 | 16 | 220 | 6.4 | 37.0 | 0.00 | 0.00 | 0.00 | 76 | 1015.9 |
| 20260506210905 | 16 | 233 | 6.4 | 40.2 | 0.00 | 0.00 | 0.00 | 76 | 1016.0 |
| 20260506210359 | 16 | 277 | 20.9 | 40.2 | 0.00 | 0.00 | 0.00 | 76 | 1015.9 |
| 20260506205853 | 15 | 248 | 9.7 | 37.0 | 0.00 | 0.00 | 0.00 | 76 | 1015.9 |
| 20260506205347 | 15 | 269 | 16.1 | 40.2 | 0.00 | 0.00 | 0.00 | 76 | 1015.8 |
| 20260506204841 | 16 | 265 | 12.9 | 40.2 | 0.00 | 0.00 | 0.00 | 76 | 1016.0 |
| 20260506204335 | 16 | 268 | 12.9 | 40.2 | 0.00 | 0.00 | 0.00 | 76 | 1016.0 |
| 20260506203829 | 15 | 257 | 9.7 | 40.2 | 0.00 | 0.00 | 0.00 | 76 | 1016.0 |
| 20260506203323 | 16 | 182 | 3.2 | 35.4 | 0.00 | 0.00 | 0.00 | 76 | 1016.0 |
| 20260506202817 | 15 | 217 | 6.4 | 33.8 | 0.00 | 0.00 | 0.00 | 76 | 1016.1 |
| 20260506202311 | 15 | 216 | 8.0 | 30.6 | 0.00 | 0.00 | 0.00 | 76 | 1016.1 |
| 20260506201805 | 15 | 255 | 8.0 | 30.6 | 0.00 | 0.00 | 0.00 | 76 | 1016.1 |
| 20260506201259 | 15 | 130 | 3.2 | 25.7 | 0.00 | 0.00 | 0.00 | 76 | 1016.0 |
| 20260506200753 | 16 | 158 | 3.2 | 25.7 | 0.00 | 0.00 | 0.00 | 76 | 1016.1 |
| 20260506200247 | 16 | 200 | 3.2 | 30.6 | 0.00 | 0.00 | 0.00 | 76 | 1016.2 |
| 20260506195741 | 15 | 240 | 4.8 | 30.6 | 0.00 | 0.00 | 0.00 | 76 | 1016.1 |
| 20260506195235 | 16 | 179 | 3.2 | 30.6 | 0.00 | 0.00 | 0.00 | 76 | 1016.1 |
| 20260506194730 | 16 | 252 | 8.0 | 30.6 | 0.00 | 0.00 | 0.00 | 76 | 1016.1 |
| 20260506194223 | 16 | 128 | 1.6 | 22.5 | 0.00 | 0.00 | 0.00 | 76 | 1016.2 |
| 20260506193717 | 16 | 245 | 6.4 | 22.5 | 0.00 | 0.00 | 0.00 | 76 | 1016.1 |
| 20260506193211 | 16 | 116 | 1.6 | 20.9 | 0.00 | 0.00 | 0.00 | 76 | 1016.1 |
| 20260506192705 | 15 | 198 | 3.2 | 27.4 | 0.00 | 0.00 | 0.00 | 76 | 1016.2 |
| 20260506192159 | 16 | 197 | 3.2 | 27.4 | 0.00 | 0.00 | 0.00 | 76 | 1016.2 |
| 20260506191653 | 16 | 172 | 3.2 | 27.4 | 0.00 | 0.00 | 0.00 | 76 | 1016.3 |
| 20260506191147 | 16 | 150 | 1.6 | 20.9 | 0.00 | 0.00 | 0.00 | 76 | 1016.3 |
| 20260506190641 | 16 | 161 | 3.2 | 25.7 | 0.00 | 0.00 | 0.00 | 76 | 1016.3 |
| 20260506190135 | 16 | 217 | 3.2 | 25.7 | 0.00 | 0.00 | 0.00 | 75 | 1016.4 |
| 20260506185629 | 16 | 239 | 3.2 | 22.5 | 0.00 | 0.00 | 0.00 | 75 | 1016.5 |
| 20260506185123 | 16 | 216 | 3.2 | 25.7 | 0.00 | 0.00 | 0.00 | 75 | 1016.4 |
| 20260506184617 | 16 | 244 | 4.8 | 29.0 | 0.00 | 0.00 | 0.00 | 75 | 1016.4 |
| 20260506184111 | 16 | 245 | 6.4 | 29.0 | 0.00 | 0.00 | 0.00 | 75 | 1016.6 |
| 20260506183605 | 16 | 262 | 8.0 | 27.4 | 0.00 | 0.00 | 0.00 | 75 | 1016.5 |
| 20260506183100 | 17 | 261 | 6.4 | 27.4 | 0.00 | 0.00 | 0.00 | 75 | 1016.6 |
| 20260506182553 | 16 | 270 | 9.7 | 27.4 | 0.00 | 0.00 | 0.00 | 75 | 1016.5 |
| 20260506182047 | 16 | 254 | 4.8 | 24.1 | 0.00 | 0.00 | 0.00 | 75 | 1016.6 |
| 20260506181541 | 17 | 277 | 9.7 | 24.1 | 0.00 | 0.00 | 0.00 | 75 | 1016.7 |
| 20260506181035 | 17 | 241 | 3.2 | 19.3 | 0.00 | 0.00 | 0.00 | 75 | 1016.7 |
| 20260506180529 | 17 | 274 | 8.0 | 19.3 | 0.00 | 0.00 | 0.00 | 75 | 1016.8 |
| 20260506180023 | 17 | 278 | 8.0 | 20.9 | 0.00 | 0.00 | 0.00 | 75 | 1016.8 |
| 20260506175517 | 17 | 278 | 6.4 | 17.7 | 0.00 | 0.00 | 0.00 | 75 | 1016.7 |
| 20260506175011 | 17 | 209 | 4.8 | 20.9 | 0.00 | 0.00 | 0.00 | 75 | 1016.8 |
| 20260506174505 | 17 | 266 | 8.0 | 20.9 | 0.00 | 0.00 | 0.00 | 75 | 1016.7 |
| 20260506173959 | 18 | 265 | 3.2 | 0.0 | 0.00 | 0.00 | 0.00 | 75 | 1016.8 |
| 20260506173453 | 17 | 280 | 3.2 | 0.0 | 0.00 | 0.00 | 0.00 | 75 | 1016.8 |
| 20260506172947 | 16 | 309 | 4.8 | 0.0 | 0.00 | 0.00 | 0.00 | 75 | 1016.7 |
| 20260506172441 | 16 | 313 | 8.0 | 0.0 | 0.00 | 0.00 | 0.00 | 75 | 1016.7 |
| 20260506171935 | 17 | 325 | 1.6 | 0.0 | 0.00 | 0.00 | 0.00 | 74 | 1016.7 |
| 20260506171429 | 17 | 278 | 4.8 | 22.5 | 0.00 | 0.00 | 0.00 | 74 | 1016.7 |
| 20260506170923 | 16 | 261 | 3.2 | 22.5 | 0.00 | 0.00 | 0.00 | 74 | 1016.7 |
| 20260506170417 | 15 | 277 | 9.7 | 22.5 | 0.00 | 0.00 | 0.00 | 74 | 1016.6 |
| 20260506165911 | 15 | 279 | 12.9 | 25.7 | 0.00 | 0.00 | 0.00 | 74 | 1016.6 |
| 20260506165405 | 15 | 283 | 8.0 | 25.7 | 0.00 | 0.00 | 0.00 | 74 | 1016.7 |
| 20260506164859 | 15 | 293 | 6.4 | 20.9 | 0.00 | 0.00 | 0.00 | 74 | 1016.6 |
| 20260506164353 | 15 | 279 | 8.0 | 22.5 | 0.00 | 0.00 | 0.00 | 74 | 1016.6 |
| 20260506163847 | 15 | 278 | 9.7 | 22.5 | 0.00 | 0.00 | 0.00 | 74 | 1016.5 |
| 20260506163341 | 15 | 272 | 4.8 | 24.1 | 0.00 | 0.00 | 0.00 | 74 | 1016.5 |
| 20260506162835 | 15 | 277 | 12.9 | 24.1 | 0.00 | 0.00 | 0.00 | 74 | 1016.5 |
| 20260506162329 | 15 | 277 | 6.4 | 0.0 | 0.00 | 0.00 | 0.00 | 74 | 1016.5 |
| 20260506161823 | 15 | 285 | 4.8 | 19.3 | 0.00 | 0.00 | 0.00 | 74 | 1016.5 |
| 20260506161317 | 15 | 277 | 6.4 | 19.3 | 0.00 | 0.00 | 0.00 | 74 | 1016.5 |
| 20260506160811 | 15 | 274 | 3.2 | 0.0 | 0.00 | 0.00 | 0.00 | 74 | 1016.5 |
| 20260506160305 | 14 | 291 | 4.8 | 19.3 | 0.00 | 0.00 | 0.00 | 74 | 1016.4 |
| 20260506155759 | 13 | 290 | 8.0 | 19.3 | 0.00 | 0.00 | 0.00 | 74 | 1016.5 |
| 20260506155253 | 13 | 309 | 4.8 | 22.5 | 0.00 | 0.00 | 0.00 | 74 | 1016.5 |
| 20260506154747 | 12 | 306 | 4.8 | 22.5 | 0.00 | 0.00 | 0.00 | 74 | 1016.4 |
| 20260506154241 | 13 | 289 | 9.7 | 17.7 | 0.00 | 0.00 | 0.00 | 73 | 1016.4 |
| 20260506153735 | 13 | 302 | 8.0 | 0.0 | 0.00 | 0.00 | 0.00 | 73 | 1016.4 |
| 20260506153229 | 13 | 302 | 3.2 | 0.0 | 0.00 | 0.00 | 0.00 | 73 | 1016.4 |
| 20260506152723 | 13 | 326 | 1.6 | 0.0 | 0.00 | 0.00 | 0.00 | 73 | 1016.5 |
| 20260506152217 | 13 | 319 | 1.6 | 0.0 | 0.00 | 0.00 | 0.00 | 73 | 1016.5 |
| 20260506151711 | 12 | 316 | 6.4 | 0.0 | 0.00 | 0.00 | 0.00 | 73 | 1016.4 |
| 20260506151205 | 12 | 311 | 6.4 | 0.0 | 0.00 | 0.00 | 0.00 | 73 | 1016.5 |
| 20260506150659 | 12 | 322 | 4.8 | 0.0 | 0.00 | 0.00 | 0.00 | 72 | 1016.5 |
| 20260506150153 | 12 | 313 | 1.6 | 0.0 | 0.00 | 0.00 | 0.00 | 72 | 1016.4 |
| 20260506145647 | 12 | 313 | 3.2 | 0.0 | 0.00 | 0.00 | 0.00 | 72 | 1016.4 |
| 20260506145141 | 12 | 327 | 4.8 | 0.0 | 0.00 | 0.00 | 0.00 | 72 | 1016.4 |
| 20260506144635 | 12 | 320 | 4.8 | 17.7 | 0.00 | 0.00 | 0.00 | 72 | 1016.4 |
| 20260506144129 | 11 | 317 | 8.0 | 17.7 | 0.00 | 0.00 | 0.00 | 72 | 1016.4 |
| 20260506143623 | 11 | 325 | 6.4 | 17.7 | 0.00 | 0.00 | 0.00 | 72 | 1016.4 |
| 20260506143117 | 11 | 325 | 6.4 | 17.7 | 0.00 | 0.00 | 0.00 | 72 | 1016.4 |
| 20260506142611 | 11 | 316 | 9.7 | 17.7 | 0.00 | 0.00 | 0.00 | 72 | 1016.3 |
| 20260506142105 | 11 | 319 | 9.7 | 17.7 | 0.00 | 0.00 | 0.00 | 72 | 1016.3 |
| 20260506141559 | 11 | 318 | 8.0 | 16.1 | 0.00 | 0.00 | 0.00 | 72 | 1016.3 |
| 20260506141053 | 11 | 320 | 6.4 | 0.0 | 0.00 | 0.00 | 0.00 | 71 | 1016.3 |
| 20260506140547 | 11 | 315 | 4.8 | 0.0 | 0.00 | 0.00 | 0.00 | 71 | 1016.1 |
| 20260506140041 | 10 | 306 | 4.8 | 0.0 | 0.00 | 0.00 | 0.00 | 71 | 1016.1 |
| 20260506135535 | 10 | 301 | 3.2 | 0.0 | 0.00 | 0.00 | 0.00 | 71 | 1016.0 |
| 20260506135029 | 10 | 298 | 6.4 | 0.0 | 0.00 | 0.00 | 0.00 | 71 | 1016.0 |
| 20260506134523 | 10 | 297 | 4.8 | 0.0 | 0.00 | 0.00 | 0.00 | 71 | 1015.9 |
| 20260506134017 | 10 | 310 | 4.8 | 0.0 | 0.00 | 0.00 | 0.00 | 71 | 1015.9 |
| 20260506133511 | 10 | 315 | 3.2 | 0.0 | 0.00 | 0.00 | 0.00 | 71 | 1015.8 |
| 20260506133005 | 9 | 322 | 6.4 | 0.0 | 0.00 | 0.00 | 0.00 | 71 | 1015.8 |
| 20260506132459 | 9 | 324 | 4.8 | 0.0 | 0.00 | 0.00 | 0.00 | 71 | 1015.7 |
| 20260506131953 | 9 | 322 | 4.8 | 0.0 | 0.00 | 0.00 | 0.00 | 71 | 1015.8 |
| 20260506131447 | 8 | 315 | 4.8 | 0.0 | 0.00 | 0.00 | 0.00 | 71 | 1015.7 |
| 20260506130941 | 8 | 294 | 1.6 | 0.0 | 0.00 | 0.00 | 0.00 | 71 | 1015.7 |
| 20260506130435 | 8 | 309 | 3.2 | 0.0 | 0.00 | 0.00 | 0.00 | 71 | 1015.7 |
| 20260506125929 | 8 | 313 | 4.8 | 0.0 | 0.00 | 0.00 | 0.00 | 71 | 1015.7 |
| 20260506125423 | 8 | 310 | 6.4 | 0.0 | 0.00 | 0.00 | 0.00 | 71 | 1015.7 |
| 20260506124917 | 8 | 300 | 6.4 | 0.0 | 0.00 | 0.00 | 0.00 | 71 | 1015.7 |
| 20260506124411 | 8 | 306 | 3.2 | 0.0 | 0.00 | 0.00 | 0.00 | 71 | 1015.8 |
| 20260506123905 | 8 | 297 | 6.4 | 0.0 | 0.00 | 0.00 | 0.00 | 71 | 1015.8 |
| 20260506123359 | 8 | 299 | 4.8 | 0.0 | 0.00 | 0.00 | 0.00 | 71 | 1015.8 |
| 20260506122853 | 8 | 305 | 3.2 | 0.0 | 0.00 | 0.00 | 0.00 | 71 | 1015.7 |
| 20260506122347 | 8 | 287 | 0.0 | 0.0 | 0.00 | 0.00 | 0.00 | 71 | 1015.7 |
| 20260506121841 | 8 | 319 | 3.2 | 0.0 | 0.00 | 0.00 | 0.00 | 71 | 1015.7 |
| 20260506121335 | 8 | 316 | 4.8 | 0.0 | 0.00 | 0.00 | 0.00 | 71 | 1015.7 |
| 20260506120829 | 8 | 321 | 3.2 | 0.0 | 0.00 | 0.00 | 0.00 | 72 | 1015.8 |
| 20260506120323 | 8 | 318 | 3.2 | 0.0 | 0.00 | 0.00 | 0.00 | 72 | 1015.8 |
| 20260506115817 | 8 | 314 | 3.2 | 0.0 | 0.00 | 0.00 | 0.00 | 72 | 1015.8 |
| 20260506115311 | 8 | 321 | 3.2 | 0.0 | 0.00 | 0.00 | 0.00 | 72 | 1015.7 |
| 20260506114805 | 8 | 314 | 4.8 | 0.0 | 0.00 | 0.00 | 0.00 | 72 | 1015.7 |
| 20260506114259 | 8 | 316 | 3.2 | 0.0 | 0.00 | 0.00 | 0.00 | 72 | 1015.7 |
| 20260506113753 | 8 | 314 | 3.2 | 0.0 | 0.00 | 0.00 | 0.00 | 72 | 1015.8 |
| 20260506113247 | 8 | 317 | 6.4 | 0.0 | 0.00 | 0.00 | 0.00 | 72 | 1015.7 |
| 20260506112741 | 8 | 317 | 4.8 | 0.0 | 0.00 | 0.00 | 0.00 | 72 | 1015.7 |
| 20260506112235 | 8 | 320 | 3.2 | 0.0 | 0.00 | 0.00 | 0.00 | 72 | 1015.7 |
| 20260506111729 | 8 | 322 | 3.2 | 0.0 | 0.00 | 0.00 | 0.00 | 72 | 1015.7 |
| 20260506111223 | 8 | 320 | 3.2 | 0.0 | 0.00 | 0.00 | 0.00 | 72 | 1015.7 |
| 20260506110717 | 8 | 315 | 1.6 | 0.0 | 0.00 | 0.00 | 0.00 | 72 | 1015.6 |
| 20260506110211 | 8 | 315 | 3.2 | 0.0 | 0.00 | 0.00 | 0.00 | 72 | 1015.6 |
| 20260506105705 | 8 | 319 | 3.2 | 0.0 | 0.00 | 0.00 | 0.00 | 72 | 1015.6 |
| 20260506105159 | 8 | 315 | 1.6 | 0.0 | 0.00 | 0.00 | 0.00 | 72 | 1015.7 |
| 20260506104653 | 8 | 316 | 3.2 | 0.0 | 0.00 | 0.00 | 0.00 | 72 | 1015.7 |
| 20260506104147 | 8 | 328 | 1.6 | 0.0 | 0.00 | 0.00 | 0.00 | 72 | 1015.6 |
| 20260506103641 | 8 | 292 | 1.6 | 0.0 | 0.00 | 0.00 | 0.00 | 72 | 1015.6 |
| 20260506103135 | 8 | 293 | 6.4 | 0.0 | 0.00 | 0.00 | 0.00 | 72 | 1015.6 |
| 20260506102629 | 8 | 286 | 8.0 | 0.0 | 0.00 | 0.00 | 0.00 | 72 | 1015.7 |
| 20260506102123 | 8 | 274 | 3.2 | 0.0 | 0.00 | 0.00 | 0.00 | 72 | 1015.7 |
| 20260506101617 | 8 | 189 | 0.0 | 0.0 | 0.00 | 0.00 | 0.00 | 72 | 1015.7 |
| 20260506101111 | 8 | 268 | 1.6 | 0.0 | 0.00 | 0.00 | 0.00 | 72 | 1015.6 |
| 20260506100605 | 8 | 269 | 6.4 | 17.7 | 0.00 | 0.00 | 0.00 | 72 | 1015.5 |
| 20260506100059 | 8 | 257 | 3.2 | 19.3 | 0.00 | 0.00 | 0.00 | 72 | 1015.6 |
| 20260506095553 | 9 | 254 | 4.8 | 22.5 | 0.00 | 0.00 | 0.00 | 72 | 1015.6 |
| 20260506095047 | 9 | 265 | 8.0 | 25.7 | 0.00 | 0.00 | 0.00 | 72 | 1015.6 |
| 20260506094541 | 9 | 275 | 17.7 | 27.4 | 0.00 | 0.00 | 0.00 | 72 | 1015.5 |
| 20260506094035 | 9 | 281 | 22.5 | 30.6 | 0.00 | 0.00 | 0.00 | 73 | 1015.5 |
| 20260506093529 | 9 | 281 | 22.5 | 30.6 | 0.00 | 0.00 | 0.00 | 73 | 1015.6 |
| 20260506093023 | 9 | 282 | 24.1 | 32.2 | 0.00 | 0.00 | 0.00 | 73 | 1015.5 |
| 20260506092517 | 9 | 278 | 17.7 | 32.2 | 0.00 | 0.00 | 0.00 | 73 | 1015.6 |
| 20260506092011 | 9 | 281 | 19.3 | 35.4 | 0.00 | 0.00 | 0.00 | 73 | 1015.6 |
| 20260506091505 | 9 | 285 | 19.3 | 35.4 | 0.00 | 0.00 | 0.00 | 73 | 1015.6 |
| 20260506090959 | 9 | 286 | 19.3 | 29.0 | 0.00 | 0.00 | 0.00 | 73 | 1015.6 |
| 20260506090453 | 9 | 290 | 12.9 | 29.0 | 0.00 | 0.00 | 0.00 | 73 | 1015.7 |
| 20260506085947 | 9 | 291 | 16.1 | 30.6 | 0.00 | 0.00 | 0.00 | 73 | 1015.7 |